EW0610 Weather Reports


time (UTC)temp
C
wind
direction
speed
KPH
gust
KPH
rain 1hr
cm
rain 24hr
cm
rain mn
cm
humidity
%
barometer
mb
20240222121143 17 153 17.7 30.6 0.00 0.00 0.00 83 1006.5
20240222120631 17 153 9.7 24.1 0.00 0.00 0.00 83 1006.6
20240222120134 17 153 11.3 24.1 0.00 0.00 0.00 83 1006.8
20240222115626 17 153 9.7 24.1 0.00 0.00 0.00 83 1006.8
20240222115122 17 153 3.2 22.5 0.00 0.00 0.00 83 1006.5
20240222114635 17 153 11.3 24.1 0.00 0.00 0.00 83 1006.7
20240222114125 17 153 6.4 24.1 0.00 0.00 0.00 83 1006.6
20240222113633 17 153 1.6 20.9 0.00 0.00 0.00 83 1006.6
20240222113140 17 264 14.5 24.1 0.00 0.00 0.00 83 1006.6
20240222112631 17 153 14.5 24.1 0.00 0.00 0.00 83 1006.7
20240222112139 17 153 1.6 24.1 0.00 0.00 0.00 82 1006.6
20240222111629 17 153 3.2 17.7 0.00 0.00 0.00 82 1006.5
20240222111137 17 153 3.2 22.5 0.00 0.00 0.00 82 1006.8
20240222110629 17 153 4.8 24.1 0.00 0.00 0.00 82 1007.0
20240222110141 17 153 3.2 24.1 0.00 0.00 0.00 82 1006.8
20240222105630 17 153 9.7 17.7 0.00 0.00 0.00 82 1006.7
20240222105141 17 153 0.0 24.1 0.00 0.00 0.00 82 1006.7
20240222104655 17 153 1.6 29.0 0.00 0.00 0.00 81 1006.7
20240222104205 17 153 6.4 29.0 0.00 0.00 0.00 82 1006.7
20240222103635 17 153 6.4 24.1 0.00 0.00 0.00 81 1006.6
20240222103129 17 153 19.3 25.7 0.00 0.00 0.00 81 1006.8
20240222102624 17 153 19.3 25.7 0.00 0.00 0.00 81 1006.5
20240222102202 17 153 6.4 24.1 0.00 0.00 0.00 81 1006.6
20240222101638 17 153 3.2 24.1 0.00 0.00 0.00 81 1006.5
20240222101130 17 153 8.0 27.4 0.00 0.00 0.00 81 1006.6
20240222100637 18 153 16.1 29.0 0.00 0.00 0.00 81 1006.7
20240222100132 17 153 14.5 29.0 0.00 0.00 0.00 81 1006.9
20240222095626 17 153 8.0 27.4 0.00 0.00 0.00 81 1006.8
20240222095133 17 153 11.3 25.7 0.00 0.00 0.00 81 1006.7
20240222094651 17 153 14.5 25.7 0.00 0.00 0.00 81 1006.9
20240222094156 18 153 11.3 25.7 0.00 0.00 0.00 80 1007.1
20240222093643 18 153 11.3 29.0 0.00 0.00 0.00 80 1006.9
20240222093130 18 153 16.1 29.0 0.00 0.00 0.00 80 1007.3
20240222092626 18 153 17.7 25.7 0.00 0.00 0.00 80 1007.2
20240222092135 18 153 12.9 30.6 0.00 0.00 0.00 80 1007.3
20240222091641 18 153 11.3 30.6 0.00 0.00 0.00 80 1007.4
20240222091134 17 153 6.4 22.5 0.00 0.00 0.00 80 1007.3
20240222090628 17 153 12.9 22.5 0.00 0.00 0.00 80 1007.5
20240222090124 17 153 9.7 25.7 0.00 0.00 0.00 80 1007.6
20240222085638 17 153 9.7 29.0 0.00 0.00 0.00 80 1007.7
20240222085128 17 153 16.1 29.0 0.00 0.00 0.00 80 1007.7
20240222084632 17 153 14.5 25.7 0.00 0.00 0.00 80 1007.8
20240222084127 17 153 6.4 24.1 0.00 0.00 0.00 80 1007.9
20240222083633 17 153 9.7 24.1 0.00 0.00 0.00 80 1008.0
20240222083142 17 153 1.6 27.4 0.00 0.00 0.00 80 1008.1
20240222082631 17 153 9.7 27.4 0.00 0.00 0.00 80 1008.1
20240222082142 17 153 3.2 25.7 0.00 0.00 0.00 80 1008.1
20240222081633 17 153 16.1 25.7 0.00 0.00 0.00 80 1008.2
20240222081130 17 153 16.1 22.5 0.00 0.00 0.00 80 1008.2
20240222080631 17 153 9.7 22.5 0.00 0.00 0.00 80 1008.4
20240222080125 17 153 16.1 30.6 0.00 0.00 0.00 80 1008.3
20240222075637 17 153 17.7 30.6 0.00 0.00 0.00 80 1008.4
20240222075144 17 153 3.2 30.6 0.00 0.00 0.00 79 1008.4
20240222074653 18 153 14.5 30.6 0.00 0.00 0.00 79 1008.5
20240222074208 18 153 16.1 27.4 0.00 0.00 0.00 79 1008.5
20240222073658 18 153 12.9 27.4 0.00 0.00 0.00 79 1008.5
20240222073142 18 153 9.7 25.7 0.00 0.00 0.00 79 1008.5
20240222072651 18 153 6.4 25.7 0.00 0.00 0.00 78 1008.6
20240222072141 18 153 4.8 25.7 0.00 0.00 0.00 78 1008.6
20240222071638 18 153 17.7 29.0 0.00 0.00 0.00 78 1008.6
20240222071134 18 153 19.3 25.7 0.00 0.00 0.00 78 1008.6
20240222070641 18 153 17.7 25.7 0.00 0.00 0.00 78 1008.7
20240222070134 18 153 16.1 25.7 0.00 0.00 0.00 77 1008.7
20240222065642 18 153 16.1 24.1 0.00 0.00 0.00 77 1008.7
20240222065127 18 153 9.7 24.1 0.00 0.00 0.00 77 1008.7
20240222064659 18 153 11.3 27.4 0.00 0.00 0.00 77 1008.7
20240222064134 18 153 14.5 29.0 0.00 0.00 0.00 76 1008.7
20240222063627 18 153 19.3 29.0 0.00 0.00 0.00 76 1008.6
20240222063137 18 153 12.9 30.6 0.00 0.00 0.00 76 1008.7
20240222062628 18 153 12.9 30.6 0.00 0.00 0.00 76 1008.8
20240222062139 18 153 12.9 27.4 0.00 0.00 0.00 75 1008.8
20240222061644 18 153 17.7 35.4 0.00 0.00 0.00 75 1008.7
20240222061139 18 153 20.9 35.4 0.00 0.00 0.00 74 1008.6
20240222060631 19 153 1.6 29.0 0.00 0.00 0.00 74 1008.7
20240222060142 19 153 19.3 29.0 0.00 0.00 0.00 73 1008.7
20240222055624 19 153 16.1 30.6 0.00 0.00 0.00 73 1008.7
20240222055139 19 153 12.9 32.2 0.00 0.00 0.00 73 1008.6
20240222054630 19 153 16.1 32.2 0.00 0.00 0.00 73 1008.5
20240222054138 19 153 17.7 29.0 0.00 0.00 0.00 72 1008.5
20240222053622 19 196 17.7 32.2 0.00 0.00 0.00 72 1008.5
20240222053201 20 153 16.1 32.2 0.00 0.00 0.00 71 1008.5
20240222052635 20 153 17.7 30.6 0.00 0.00 0.00 71 1008.5
20240222052143 20 153 16.1 30.6 0.00 0.00 0.00 71 1008.6
20240222051636 20 153 19.3 37.0 0.00 0.00 0.00 70 1008.6
20240222051128 20 153 24.1 37.0 0.00 0.00 0.00 70 1008.5
20240222050638 20 153 22.5 32.2 0.00 0.00 0.00 70 1008.5
20240222050153 20 153 12.9 32.2 0.00 0.00 0.00 70 1008.6
20240222045639 20 153 17.7 27.4 0.00 0.00 0.00 70 1008.6
20240222045133 20 153 11.3 30.6 0.00 0.00 0.00 69 1008.7
20240222044627 20 153 20.9 30.6 0.00 0.00 0.00 69 1008.8
20240222044137 20 153 16.1 35.4 0.00 0.00 0.00 69 1008.9
20240222043650 20 153 20.9 35.4 0.00 0.00 0.00 69 1009.0
20240222043140 20 153 17.7 29.0 0.00 0.00 0.00 69 1008.9
20240222042632 20 153 19.3 33.8 0.00 0.00 0.00 68 1008.9
20240222042125 20 153 19.3 33.8 0.00 0.00 0.00 68 1008.9
20240222041631 20 158 9.7 24.1 0.00 0.00 0.00 68 1008.9
20240222041140 20 153 12.9 27.4 0.00 0.00 0.00 67 1009.0
20240222040635 20 153 14.5 27.4 0.00 0.00 0.00 67 1008.9
20240222040128 20 153 14.5 30.6 0.00 0.00 0.00 67 1008.9
20240222035704 21 153 17.7 30.6 0.00 0.00 0.00 67 1008.9
20240222035134 21 153 12.9 29.0 0.00 0.00 0.00 66 1008.9
20240222034643 21 153 1.6 29.0 0.00 0.00 0.00 66 1009.0
20240222034132 21 153 9.7 29.0 0.00 0.00 0.00 66 1008.9
20240222033640 21 153 6.4 30.6 0.00 0.00 0.00 65 1008.9
20240222033156 21 153 16.1 30.6 0.00 0.00 0.00 65 1008.9
20240222032626 21 153 14.5 25.7 0.00 0.00 0.00 65 1009.0
20240222032142 21 153 1.6 27.4 0.00 0.00 0.00 65 1009.0
20240222031635 21 153 17.7 24.1 0.00 0.00 0.00 65 1009.1
20240222031147 21 153 9.7 33.8 0.00 0.00 0.00 64 1009.0
20240222030700 21 153 12.9 33.8 0.00 0.00 0.00 64 1009.0
20240222030129 21 153 4.8 27.4 0.00 0.00 0.00 64 1009.0
20240222025637 21 153 11.3 33.8 0.00 0.00 0.00 63 1008.9
20240222025124 21 153 24.1 33.8 0.00 0.00 0.00 63 1008.8
20240222024636 21 153 8.0 30.6 0.00 0.00 0.00 63 1008.8
20240222024126 21 153 9.7 30.6 0.00 0.00 0.00 63 1008.9
20240222023640 21 153 17.7 30.6 0.00 0.00 0.00 63 1009.0
20240222023140 21 153 22.5 32.2 0.00 0.00 0.00 62 1008.8
20240222022629 21 153 19.3 32.2 0.00 0.00 0.00 62 1008.8
20240222022136 21 153 14.5 32.2 0.00 0.00 0.00 62 1009.1
20240222021648 21 153 11.3 33.8 0.00 0.00 0.00 62 1009.1
20240222021156 21 153 16.1 33.8 0.00 0.00 0.00 62 1009.1
20240222020645 21 158 8.0 27.4 0.00 0.00 0.00 61 1009.4
20240222020139 21 153 1.6 22.5 0.00 0.00 0.00 61 1009.3
20240222015629 21 153 11.3 25.7 0.00 0.00 0.00 60 1009.3
20240222015138 22 153 4.8 25.7 0.00 0.00 0.00 60 1009.3
20240222014654 22 153 8.0 22.5 0.00 0.00 0.00 59 1009.2
20240222014438 22 153 17.7 32.2 0.00 0.00 0.00 59 1009.2
20240222013629 22 153 20.9 32.2 0.00 0.00 0.00 58 1009.1
20240222013123 22 153 17.7 27.4 0.00 0.00 0.00 58 1009.1
20240222012634 22 153 19.3 38.6 0.00 0.00 0.00 58 1009.0
20240222012137 22 153 16.1 38.6 0.00 0.00 0.00 57 1008.9
20240222011636 22 153 4.8 32.2 0.00 0.00 0.00 57 1008.9
20240222011148 22 153 22.5 32.2 0.00 0.00 0.00 57 1008.9
20240222010636 22 153 17.7 30.6 0.00 0.00 0.00 57 1008.8
20240222010211 22 153 3.2 24.1 0.00 0.00 0.00 57 1008.8
20240222005659 22 153 3.2 25.7 0.00 0.00 0.00 57 1008.7
20240222005145 22 153 9.7 27.4 0.00 0.00 0.00 58 1008.7
20240222004636 22 153 12.9 27.4 0.00 0.00 0.00 58 1008.8
20240222004130 22 102 6.4 25.7 0.00 0.00 0.00 58 1008.6
20240222003642 23 153 6.4 25.7 0.00 0.00 0.00 58 1008.7
20240222003130 23 162 8.0 25.7 0.00 0.00 0.00 58 1008.5
20240222002638 23 153 11.3 27.4 0.00 0.00 0.00 58 1008.3
20240222002128 23 153 14.5 29.0 0.00 0.00 0.00 57 1008.5
20240222001640 23 153 12.9 30.6 0.00 0.00 0.00 57 1008.6
20240222001131 23 153 19.3 30.6 0.00 0.00 0.00 56 1008.5
20240222000626 23 153 19.3 30.6 0.00 0.00 0.00 56 1008.5
20240222000205 23 153 17.7 29.0 0.00 0.00 0.00 56 1008.3
20240221235632 23 153 17.7 35.4 0.00 0.00 0.00 56 1008.3
20240221235126 24 153 20.9 35.4 0.00 0.00 0.00 55 1008.2
20240221234638 24 153 16.1 32.2 0.00 0.00 0.00 55 1008.0
20240221234127 24 153 19.3 32.2 0.00 0.00 0.00 54 1008.0
20240221233638 24 153 19.3 30.6 0.00 0.00 0.00 54 1008.0
20240221233130 25 153 12.9 25.7 0.00 0.00 0.00 53 1008.0
20240221232636 25 153 9.7 30.6 0.00 0.00 0.00 53 1008.3
20240221232144 25 153 19.3 30.6 0.00 0.00 0.00 52 1008.4
20240221231635 25 153 11.3 25.7 0.00 0.00 0.00 51 1008.4
20240221231146 25 153 9.7 25.7 0.00 0.00 0.00 50 1008.5
20240221230639 26 153 12.9 25.7 0.00 0.00 0.00 48 1008.5
20240221230128 26 153 11.3 22.5 0.00 0.00 0.00 48 1008.7
20240221225640 26 153 9.7 25.7 0.00 0.00 0.00 47 1008.8
20240221225131 26 153 17.7 25.7 0.00 0.00 0.00 46 1008.8
20240221224703 26 153 11.3 24.1 0.00 0.00 0.00 46 1008.8
20240221224134 26 153 8.0 32.2 0.00 0.00 0.00 46 1008.8
20240221223644 26 153 19.3 32.2 0.00 0.00 0.00 46 1008.8
20240221223154 26 153 20.9 30.6 0.00 0.00 0.00 45 1008.8
20240221222640 26 153 16.1 30.6 0.00 0.00 0.00 45 1008.9
20240221222123 26 153 4.8 24.1 0.00 0.00 0.00 45 1009.2
20240221221659 26 153 11.3 25.7 0.00 0.00 0.00 45 1009.3
20240221221129 26 153 16.1 22.5 0.00 0.00 0.00 45 1009.2
20240221220639 26 153 11.3 30.6 0.00 0.00 0.00 45 1009.5
20240221220130 26 153 14.5 30.6 0.00 0.00 0.00 45 1009.6
20240221215641 26 153 12.9 27.4 0.00 0.00 0.00 45 1009.6
20240221215127 27 153 16.1 27.4 0.00 0.00 0.00 45 1009.7
20240221214643 27 153 9.7 29.0 0.00 0.00 0.00 44 1009.6
20240221214159 27 153 20.9 30.6 0.00 0.00 0.00 45 1009.7
20240221213640 27 153 9.7 32.2 0.00 0.00 0.00 45 1010.1
20240221213127 27 153 17.7 32.2 0.00 0.00 0.00 45 1010.2
20240221212636 26 153 16.1 29.0 0.00 0.00 0.00 45 1010.3
20240221212126 26 153 19.3 27.4 0.00 0.00 0.00 45 1010.3
20240221211621 27 153 19.3 27.4 0.00 0.00 0.00 46 1010.5
20240221211133 26 153 17.7 29.0 0.00 0.00 0.00 46 1010.6
20240221210627 27 153 14.5 29.0 0.00 0.00 0.00 46 1010.6
20240221210135 26 153 6.4 27.4 0.00 0.00 0.00 46 1010.7
20240221205635 27 153 8.0 27.4 0.00 0.00 0.00 46 1010.8
20240221205128 27 153 6.4 24.1 0.00 0.00 0.00 46 1010.8
20240221204637 27 153 12.9 27.4 0.00 0.00 0.00 46 1010.9
20240221204128 26 153 8.0 25.7 0.00 0.00 0.00 47 1011.0
20240221203703 26 153 14.5 30.6 0.00 0.00 0.00 46 1011.1
20240221203152 26 153 9.7 30.6 0.00 0.00 0.00 47 1011.4
20240221202639 26 153 8.0 24.1 0.00 0.00 0.00 47 1011.6
20240221202142 26 153 17.7 24.1 0.00 0.00 0.00 47 1011.7
20240221201633 26 153 11.3 27.4 0.00 0.00 0.00 48 1011.9
20240221201127 26 153 14.5 27.4 0.00 0.00 0.00 48 1012.0
20240221200639 26 153 14.5 29.0 0.00 0.00 0.00 49 1012.0
20240221200128 26 153 16.1 29.0 0.00 0.00 0.00 49 1012.2
20240221195639 26 153 9.7 24.1 0.00 0.00 0.00 49 1012.2
20240221195134 26 153 8.0 25.7 0.00 0.00 0.00 50 1012.3
20240221194644 26 153 8.0 32.2 0.00 0.00 0.00 51 1012.4
20240221194146 25 153 14.5 32.2 0.00 0.00 0.00 51 1012.5
20240221193636 25 153 19.3 30.6 0.00 0.00 0.00 51 1012.7
20240221193125 25 153 19.3 29.0 0.00 0.00 0.00 52 1013.0
20240221192632 25 153 11.3 29.0 0.00 0.00 0.00 52 1013.0
20240221192124 25 153 6.4 32.2 0.00 0.00 0.00 53 1013.1
20240221191633 25 153 11.3 32.2 0.00 0.00 0.00 53 1013.3
20240221191143 25 153 0.0 33.8 0.00 0.00 0.00 55 1013.5
20240221190630 25 153 19.3 33.8 0.00 0.00 0.00 54 1013.7
20240221190130 24 153 1.6 30.6 0.00 0.00 0.00 56 1013.8
20240221185635 24 153 20.9 29.0 0.00 0.00 0.00 56 1013.9
20240221185125 23 153 12.9 27.4 0.00 0.00 0.00 57 1014.2
20240221184638 23 153 17.7 27.4 0.00 0.00 0.00 56 1014.4
20240221184141 23 153 17.7 29.0 0.00 0.00 0.00 57 1014.5
20240221183626 23 153 6.4 30.6 0.00 0.00 0.00 58 1014.7
20240221183137 23 153 16.1 30.6 0.00 0.00 0.00 58 1014.7
20240221182621 23 153 8.0 30.6 0.00 0.00 0.00 59 1014.9
20240221182147 23 153 17.7 29.0 0.00 0.00 0.00 59 1015.0
20240221181659 23 153 20.9 33.8 0.00 0.00 0.00 60 1015.1
20240221181128 23 153 22.5 33.8 0.00 0.00 0.00 59 1015.2
20240221180639 23 153 14.5 29.0 0.00 0.00 0.00 60 1015.4
20240221180129 22 153 12.9 27.4 0.00 0.00 0.00 60 1015.5
20240221175634 23 153 14.5 27.4 0.00 0.00 0.00 60 1015.6
20240221175144 22 153 6.4 27.4 0.00 0.00 0.00 61 1015.6
20240221174624 22 153 19.3 27.4 0.00 0.00 0.00 61 1015.7
20240221174137 22 153 9.7 29.0 0.00 0.00 0.00 62 1015.8
20240221173642 22 153 12.9 29.0 0.00 0.00 0.00 63 1015.9
20240221173134 22 153 14.5 29.0 0.00 0.00 0.00 62 1016.0
20240221172645 21 153 14.5 25.7 0.00 0.00 0.00 63 1016.0
20240221172151 21 153 4.8 27.4 0.00 0.00 0.00 63 1016.1
20240221171626 21 153 19.3 27.4 0.00 0.00 0.00 63 1016.1
20240221171140 21 153 17.7 27.4 0.00 0.00 0.00 64 1016.3
20240221170627 21 153 14.5 25.7 0.00 0.00 0.00 64 1016.3
20240221170137 21 153 11.3 24.1 0.00 0.00 0.00 65 1016.5
20240221165648 21 153 11.3 29.0 0.00 0.00 0.00 65 1016.5
20240221165133 21 153 12.9 29.0 0.00 0.00 0.00 66 1016.5
20240221164641 20 153 6.4 25.7 0.00 0.00 0.00 67 1016.5
20240221164151 20 153 14.5 25.7 0.00 0.00 0.00 67 1016.6
20240221163657 20 153 11.3 24.1 0.00 0.00 0.00 67 1016.6
20240221163143 20 153 8.0 24.1 0.00 0.00 0.00 68 1016.7
20240221162628 20 153 12.9 25.7 0.00 0.00 0.00 69 1016.6
20240221162139 20 153 14.5 25.7 0.00 0.00 0.00 69 1016.7
20240221161649 19 153 6.4 25.7 0.00 0.00 0.00 70 1016.7
20240221161155 19 153 9.7 27.4 0.00 0.00 0.00 71 1016.7
20240221160640 19 153 17.7 27.4 0.00 0.00 0.00 72 1016.8
20240221160153 18 153 0.0 27.4 0.00 0.00 0.00 72 1016.8
20240221155640 18 153 8.0 25.7 0.00 0.00 0.00 73 1016.8
20240221155146 18 153 16.1 25.7 0.00 0.00 0.00 74 1016.8
20240221154642 18 153 19.3 25.7 0.00 0.00 0.00 75 1016.9
20240221154148 18 153 11.3 22.5 0.00 0.00 0.00 75 1016.9
20240221153654 18 153 3.2 24.1 0.00 0.00 0.00 76 1017.0
20240221153143 17 153 9.7 27.4 0.00 0.00 0.00 77 1017.0
20240221152633 17 153 0.0 27.4 0.00 0.00 0.00 78 1017.0
20240221152135 17 153 1.6 11.3 0.00 0.00 0.00 79 1017.0
20240221151629 17 153 0.0 20.9 0.00 0.00 0.00 80 1017.1
20240221151139 16 153 6.4 22.5 0.00 0.00 0.00 81 1017.1
20240221150651 16 153 0.0 22.5 0.00 0.00 0.00 82 1017.0
20240221150144 16 153 4.8 20.9 0.00 0.00 0.00 83 1017.0
20240221145634 16 153 1.6 22.5 0.00 0.00 0.00 83 1017.0
20240221145125 16 153 12.9 20.9 0.00 0.00 0.00 83 1016.9
20240221144637 15 153 9.7 24.1 0.00 0.00 0.00 84 1016.9
20240221144137 15 153 14.5 24.1 0.00 0.00 0.00 84 1016.9
20240221143624 15 153 9.7 22.5 0.00 0.00 0.00 84 1016.9
20240221143137 15 153 11.3 22.5 0.00 0.00 0.00 84 1016.8
20240221142625 15 153 0.0 22.5 0.00 0.00 0.00 84 1016.7
20240221142137 15 153 8.0 22.5 0.00 0.00 0.00 84 1016.8
20240221141627 15 153 3.2 19.3 0.00 0.00 0.00 84 1016.8
20240221141136 15 153 6.4 19.3 0.00 0.00 0.00 84 1016.7
20240221140647 15 153 6.4 16.1 0.00 0.00 0.00 84 1016.8
20240221140155 15 153 0.0 16.1 0.00 0.00 0.00 84 1016.7
20240221135626 14 153 0.0 16.1 0.00 0.00 0.00 84 1016.7
20240221135135 14 153 0.0 16.1 0.00 0.00 0.00 84 1016.8
20240221134643 14 153 0.0 1.6 0.00 0.00 0.00 84 1016.8
20240221134130 14 153 0.0 1.6 0.00 0.00 0.00 84 1016.9
20240221133638 14 153 0.0 1.6 0.00 0.00 0.00 84 1016.9
20240221133149 14 153 0.0 1.6 0.00 0.00 0.00 84 1016.9
20240221132637 13 153 0.0 3.2 0.00 0.00 0.00 84 1016.8
20240221132125 13 158 0.0 6.4 0.00 0.00 0.00 84 1016.9
20240221131702 13 153 0.0 6.4 0.00 0.00 0.00 84 1016.9
20240221131131 13 153 0.0 0.0 0.00 0.00 0.00 84 1016.9
20240221130702 13 153 0.0 0.0 0.00 0.00 0.00 83 1016.8
20240221125644 13 153 0.0 0.0 0.00 0.00 0.00 83 1016.8
20240221125130 13 153 0.0 0.0 0.00 0.00 0.00 83 1016.8
20240221124637 13 153 0.0 0.0 0.00 0.00 0.00 82 1016.8
20240221124151 13 153 0.0 1.6 0.00 0.00 0.00 82 1016.7
20240221123658 14 153 0.0 1.6 0.00 0.00 0.00 82 1016.6
20240221123144 13 153 0.0 3.2 0.00 0.00 0.00 82 1016.6
20240221122634 13 153 0.0 3.2 0.00 0.00 0.00 82 1016.7
20240221122125 14 153 0.0 1.6 0.00 0.00 0.00 81 1016.7
20240221121634 14 153 0.0 1.6 0.00 0.00 0.00 81 1016.7